1382133602,"2013-10-19 00:00:02",292
1382133609,"2013-10-19 00:00:09",293
1382133615,"2013-10-19 00:00:15",291
1382133622,"2013-10-19 00:00:22",290
1382133628,"2013-10-19 00:00:28",284
1382133635,"2013-10-19 00:00:35",289
1382133641,"2013-10-19 00:00:41",288
1382133648,"2013-10-19 00:00:48",284
1382133654,"2013-10-19 00:00:54",298
1382133661,"2013-10-19 00:01:01",292
1382133667,"2013-10-19 00:01:07",289
1382133674,"2013-10-19 00:01:14",290
1382133680,"2013-10-19 00:01:20",292
1382133687,"2013-10-19 00:01:27",298
1382133693,"2013-10-19 00:01:33",289
1382133700,"2013-10-19 00:01:40",287
1382133706,"2013-10-19 00:01:46",289
1382133713,"2013-10-19 00:01:53",285
1382133719,"2013-10-19 00:01:59",289
1382133726,"2013-10-19 00:02:06",291
1382133732,"2013-10-19 00:02:12",292
1382133739,"2013-10-19 00:02:19",288
1382133745,"2013-10-19 00:02:25",285
1382133752,"2013-10-19 00:02:32",288
1382133758,"2013-10-19 00:02:38",289
1382133765,"2013-10-19 00:02:45",286
1382133771,"2013-10-19 00:02:51",290
1382133778,"2013-10-19 00:02:58",289
1382133784,"2013-10-19 00:03:04",291
1382133791,"2013-10-19 00:03:11",287
1382133797,"2013-10-19 00:03:17",289
1382133804,"2013-10-19 00:03:24",283
1382133810,"2013-10-19 00:03:30",291
1382133817,"2013-10-19 00:03:37",286
1382133823,"2013-10-19 00:03:43",286
1382133830,"2013-10-19 00:03:50",289
1382133836,"2013-10-19 00:03:56",283
1382133843,"2013-10-19 00:04:03",291
1382133849,"2013-10-19 00:04:09",289
1382133856,"2013-10-19 00:04:16",285
1382133862,"2013-10-19 00:04:22",289
1382133869,"2013-10-19 00:04:29",285
1382133875,"2013-10-19 00:04:35",289
1382133882,"2013-10-19 00:04:42",284
1382133888,"2013-10-19 00:04:48",287
1382133895,"2013-10-19 00:04:55",288
1382133901,"2013-10-19 00:05:01",279
1382133908,"2013-10-19 00:05:08",283
1382133914,"2013-10-19 00:05:14",289
1382133921,"2013-10-19 00:05:21",288
1382133927,"2013-10-19 00:05:27",287
1382133934,"2013-10-19 00:05:34",284
1382133940,"2013-10-19 00:05:40",292
1382133947,"2013-10-19 00:05:47",286
1382133953,"2013-10-19 00:05:53",289
1382133960,"2013-10-19 00:06:00",286
1382133966,"2013-10-19 00:06:06",283
1382133973,"2013-10-19 00:06:13",285
1382133979,"2013-10-19 00:06:19",282
1382133986,"2013-10-19 00:06:26",285
1382133993,"2013-10-19 00:06:33",289
1382133999,"2013-10-19 00:06:39",283
1382134005,"2013-10-19 00:06:45",286
1382134012,"2013-10-19 00:06:52",283
1382134018,"2013-10-19 00:06:58",285
1382134025,"2013-10-19 00:07:05",289
1382134031,"2013-10-19 00:07:11",281
1382134038,"2013-10-19 00:07:18",289
1382134044,"2013-10-19 00:07:24",286
1382134051,"2013-10-19 00:07:31",284
1382134057,"2013-10-19 00:07:37",290
1382134070,"2013-10-19 00:07:50",290
1382134077,"2013-10-19 00:07:57",286
1382134083,"2013-10-19 00:08:03",286
1382134090,"2013-10-19 00:08:10",285
1382134096,"2013-10-19 00:08:16",290
1382134103,"2013-10-19 00:08:23",280
1382134109,"2013-10-19 00:08:29",287
1382134116,"2013-10-19 00:08:36",283
1382134122,"2013-10-19 00:08:42",284
1382134129,"2013-10-19 00:08:49",281
1382134135,"2013-10-19 00:08:55",287
1382134142,"2013-10-19 00:09:02",283
1382134148,"2013-10-19 00:09:08",288
1382134155,"2013-10-19 00:09:15",282
1382134161,"2013-10-19 00:09:21",286
1382134168,"2013-10-19 00:09:28",280
1382134174,"2013-10-19 00:09:34",283
1382134181,"2013-10-19 00:09:41",283
1382134187,"2013-10-19 00:09:47",283
1382134194,"2013-10-19 00:09:54",282
1382134200,"2013-10-19 00:10:00",281
1382134207,"2013-10-19 00:10:07",285
1382134213,"2013-10-19 00:10:13",281
1382134220,"2013-10-19 00:10:20",282
1382134226,"2013-10-19 00:10:26",283
1382134233,"2013-10-19 00:10:33",284
1382134239,"2013-10-19 00:10:39",281
1382134246,"2013-10-19 00:10:46",279
1382134252,"2013-10-19 00:10:52",279
1382134259,"2013-10-19 00:10:59",283
1382134265,"2013-10-19 00:11:05",282
1382134272,"2013-10-19 00:11:12",276
1382134278,"2013-10-19 00:11:18",281
1382134285,"2013-10-19 00:11:25",284
1382134291,"2013-10-19 00:11:31",282
1382134298,"2013-10-19 00:11:38",278
1382134304,"2013-10-19 00:11:44",278
1382134311,"2013-10-19 00:11:51",284
1382134317,"2013-10-19 00:11:57",281
1382134324,"2013-10-19 00:12:04",286
1382134330,"2013-10-19 00:12:10",283
1382134337,"2013-10-19 00:12:17",281
1382134344,"2013-10-19 00:12:24",282
1382134350,"2013-10-19 00:12:30",280
1382134356,"2013-10-19 00:12:36",283
1382134363,"2013-10-19 00:12:43",281
1382134369,"2013-10-19 00:12:49",274
1382134376,"2013-10-19 00:12:56",287
1382134382,"2013-10-19 00:13:02",285
1382134389,"2013-10-19 00:13:09",280
1382134395,"2013-10-19 00:13:15",275
1382134402,"2013-10-19 00:13:22",285
1382134408,"2013-10-19 00:13:28",282
1382134415,"2013-10-19 00:13:35",284
1382134421,"2013-10-19 00:13:41",281
1382134428,"2013-10-19 00:13:48",281
1382134434,"2013-10-19 00:13:54",283
1382134441,"2013-10-19 00:14:01",281
1382134447,"2013-10-19 00:14:07",284
1382134454,"2013-10-19 00:14:14",282
1382134460,"2013-10-19 00:14:20",283
1382134467,"2013-10-19 00:14:27",281
1382134473,"2013-10-19 00:14:33",280
1382134480,"2013-10-19 00:14:40",285
1382134486,"2013-10-19 00:14:46",278
1382134493,"2013-10-19 00:14:53",283
1382134499,"2013-10-19 00:14:59",277
1382134506,"2013-10-19 00:15:06",280
1382134512,"2013-10-19 00:15:12",278
1382134519,"2013-10-19 00:15:19",285
1382134525,"2013-10-19 00:15:25",281
1382134532,"2013-10-19 00:15:32",282
1382134538,"2013-10-19 00:15:38",283
1382134545,"2013-10-19 00:15:45",281
1382134551,"2013-10-19 00:15:51",281
1382134558,"2013-10-19 00:15:58",286
1382134564,"2013-10-19 00:16:04",281
1382134571,"2013-10-19 00:16:11",279
1382134577,"2013-10-19 00:16:17",281
1382134584,"2013-10-19 00:16:24",283
1382134590,"2013-10-19 00:16:30",276
1382134597,"2013-10-19 00:16:37",284
1382134603,"2013-10-19 00:16:43",278
1382134610,"2013-10-19 00:16:50",277
1382134616,"2013-10-19 00:16:56",278
1382134623,"2013-10-19 00:17:03",283
1382134629,"2013-10-19 00:17:09",278
1382134636,"2013-10-19 00:17:16",282
1382134642,"2013-10-19 00:17:22",279
1382134649,"2013-10-19 00:17:29",276
1382134655,"2013-10-19 00:17:35",273
1382134662,"2013-10-19 00:17:42",282
1382134668,"2013-10-19 00:17:48",286
1382134675,"2013-10-19 00:17:55",279
1382134681,"2013-10-19 00:18:01",276
1382134688,"2013-10-19 00:18:08",282
1382134695,"2013-10-19 00:18:15",280
1382134701,"2013-10-19 00:18:21",276
1382134707,"2013-10-19 00:18:27",283
1382134714,"2013-10-19 00:18:34",280
1382134720,"2013-10-19 00:18:40",277
1382134727,"2013-10-19 00:18:47",280
1382134733,"2013-10-19 00:18:53",278
1382134740,"2013-10-19 00:19:00",280
1382134746,"2013-10-19 00:19:06",277
1382134753,"2013-10-19 00:19:13",279
1382134759,"2013-10-19 00:19:19",279
1382134766,"2013-10-19 00:19:26",277
1382134772,"2013-10-19 00:19:32",279
1382134779,"2013-10-19 00:19:39",298
1382134785,"2013-10-19 00:19:45",281
1382134792,"2013-10-19 00:19:52",276
1382134798,"2013-10-19 00:19:58",280
1382134805,"2013-10-19 00:20:05",281
1382134811,"2013-10-19 00:20:11",277
1382134818,"2013-10-19 00:20:18",285
1382134824,"2013-10-19 00:20:24",276
1382134831,"2013-10-19 00:20:31",278
1382134837,"2013-10-19 00:20:37",282
1382134844,"2013-10-19 00:20:44",281
1382134850,"2013-10-19 00:20:50",275
1382134857,"2013-10-19 00:20:57",276
1382134863,"2013-10-19 00:21:03",282
1382134870,"2013-10-19 00:21:10",282
1382134876,"2013-10-19 00:21:16",282
1382134883,"2013-10-19 00:21:23",282
1382134889,"2013-10-19 00:21:29",281
1382134896,"2013-10-19 00:21:36",283
1382134902,"2013-10-19 00:21:42",279
1382134909,"2013-10-19 00:21:49",277
1382134915,"2013-10-19 00:21:55",279
1382134922,"2013-10-19 00:22:02",276
1382134928,"2013-10-19 00:22:08",275
1382134935,"2013-10-19 00:22:15",278
1382134941,"2013-10-19 00:22:21",275
1382134948,"2013-10-19 00:22:28",283
1382134954,"2013-10-19 00:22:34",282
1382134961,"2013-10-19 00:22:41",277
1382134967,"2013-10-19 00:22:47",280
1382134974,"2013-10-19 00:22:54",277
1382134980,"2013-10-19 00:23:00",278
1382134987,"2013-10-19 00:23:07",275
1382134993,"2013-10-19 00:23:13",281
1382135000,"2013-10-19 00:23:20",279
1382135006,"2013-10-19 00:23:26",280
1382135013,"2013-10-19 00:23:33",278
1382135019,"2013-10-19 00:23:39",276
1382135026,"2013-10-19 00:23:46",282
1382135032,"2013-10-19 00:23:52",234
1382135039,"2013-10-19 00:23:59",229
1382135045,"2013-10-19 00:24:05",232
1382135052,"2013-10-19 00:24:12",225
1382135058,"2013-10-19 00:24:18",230
1382135065,"2013-10-19 00:24:25",223
1382135071,"2013-10-19 00:24:31",227
1382135078,"2013-10-19 00:24:38",230
1382135084,"2013-10-19 00:24:44",231
1382135091,"2013-10-19 00:24:51",222
1382135097,"2013-10-19 00:24:57",229
1382135104,"2013-10-19 00:25:04",233
1382135110,"2013-10-19 00:25:10",226
1382135117,"2013-10-19 00:25:17",227
1382135123,"2013-10-19 00:25:23",231
1382135130,"2013-10-19 00:25:30",229
1382135136,"2013-10-19 00:25:36",232
1382135143,"2013-10-19 00:25:43",224
1382135149,"2013-10-19 00:25:49",228
1382135156,"2013-10-19 00:25:56",225
1382135162,"2013-10-19 00:26:02",230
1382135169,"2013-10-19 00:26:09",229
1382135175,"2013-10-19 00:26:15",229
1382135182,"2013-10-19 00:26:22",230
1382135188,"2013-10-19 00:26:28",244
1382135195,"2013-10-19 00:26:35",233
1382135201,"2013-10-19 00:26:41",229
1382135208,"2013-10-19 00:26:48",224
1382135214,"2013-10-19 00:26:54",230
1382135221,"2013-10-19 00:27:01",230
1382135227,"2013-10-19 00:27:07",226
1382135234,"2013-10-19 00:27:14",233
1382135240,"2013-10-19 00:27:20",233
1382135247,"2013-10-19 00:27:27",215
1382135253,"2013-10-19 00:27:33",228
1382135260,"2013-10-19 00:27:40",226
1382135266,"2013-10-19 00:27:46",227
1382135273,"2013-10-19 00:27:53",227
1382135279,"2013-10-19 00:27:59",229
1382135286,"2013-10-19 00:28:06",232
1382135292,"2013-10-19 00:28:12",229
1382135299,"2013-10-19 00:28:19",232
1382135305,"2013-10-19 00:28:25",229
1382135312,"2013-10-19 00:28:32",230
1382135318,"2013-10-19 00:28:38",231
1382135325,"2013-10-19 00:28:45",227
1382135331,"2013-10-19 00:28:51",219
1382135338,"2013-10-19 00:28:58",223
1382135344,"2013-10-19 00:29:04",226
1382135351,"2013-10-19 00:29:11",230
1382135357,"2013-10-19 00:29:17",232
1382135364,"2013-10-19 00:29:24",226
1382135370,"2013-10-19 00:29:30",226
1382135377,"2013-10-19 00:29:37",226
1382135383,"2013-10-19 00:29:43",231
1382135390,"2013-10-19 00:29:50",230
1382135396,"2013-10-19 00:29:56",230
1382135403,"2013-10-19 00:30:03",225
1382135409,"2013-10-19 00:30:09",232
1382135416,"2013-10-19 00:30:16",227
1382135422,"2013-10-19 00:30:22",226
1382135429,"2013-10-19 00:30:29",224
1382135435,"2013-10-19 00:30:35",225
1382135442,"2013-10-19 00:30:42",236
1382135448,"2013-10-19 00:30:48",223
1382135455,"2013-10-19 00:30:55",224
1382135461,"2013-10-19 00:31:01",229
1382135468,"2013-10-19 00:31:08",225
1382135474,"2013-10-19 00:31:14",227
1382135481,"2013-10-19 00:31:21",226
1382135487,"2013-10-19 00:31:27",236
1382135494,"2013-10-19 00:31:34",231
1382135500,"2013-10-19 00:31:40",230
1382135507,"2013-10-19 00:31:47",230
1382135513,"2013-10-19 00:31:53",226
1382135520,"2013-10-19 00:32:00",224
1382135526,"2013-10-19 00:32:06",230
1382135533,"2013-10-19 00:32:13",225
1382135539,"2013-10-19 00:32:19",227
1382135546,"2013-10-19 00:32:26",228
1382135552,"2013-10-19 00:32:32",226
1382135559,"2013-10-19 00:32:39",228
1382135572,"2013-10-19 00:32:52",226
1382135578,"2013-10-19 00:32:58",227
1382135585,"2013-10-19 00:33:05",226
1382135591,"2013-10-19 00:33:11",225
1382135598,"2013-10-19 00:33:18",224
1382135604,"2013-10-19 00:33:24",232
1382135611,"2013-10-19 00:33:31",228
1382135617,"2013-10-19 00:33:37",225
1382135624,"2013-10-19 00:33:44",228
1382135630,"2013-10-19 00:33:50",232
1382135637,"2013-10-19 00:33:57",230
1382135643,"2013-10-19 00:34:03",227
1382135650,"2013-10-19 00:34:10",234
1382135656,"2013-10-19 00:34:16",230
1382135663,"2013-10-19 00:34:23",227
1382135669,"2013-10-19 00:34:29",225
1382135676,"2013-10-19 00:34:36",216
1382135682,"2013-10-19 00:34:42",230
1382135689,"2013-10-19 00:34:49",232
1382135695,"2013-10-19 00:34:55",227
1382135702,"2013-10-19 00:35:02",229
1382135708,"2013-10-19 00:35:08",226
1382135715,"2013-10-19 00:35:15",231
1382135721,"2013-10-19 00:35:21",228
1382135728,"2013-10-19 00:35:28",227
1382135734,"2013-10-19 00:35:34",227
1382135741,"2013-10-19 00:35:41",221
1382135747,"2013-10-19 00:35:47",229
1382135754,"2013-10-19 00:35:54",230
1382135760,"2013-10-19 00:36:00",234
1382135767,"2013-10-19 00:36:07",226
1382135773,"2013-10-19 00:36:13",229
1382135780,"2013-10-19 00:36:20",227
1382135786,"2013-10-19 00:36:26",233
1382135793,"2013-10-19 00:36:33",231
1382135799,"2013-10-19 00:36:39",231
1382135806,"2013-10-19 00:36:46",231
1382135812,"2013-10-19 00:36:52",229
1382135819,"2013-10-19 00:36:59",228
1382135825,"2013-10-19 00:37:05",231
1382135832,"2013-10-19 00:37:12",228
1382135838,"2013-10-19 00:37:18",228
1382135845,"2013-10-19 00:37:25",229
1382135851,"2013-10-19 00:37:31",233
1382135858,"2013-10-19 00:37:38",232
1382135864,"2013-10-19 00:37:44",226
1382135871,"2013-10-19 00:37:51",236
1382135877,"2013-10-19 00:37:57",232
1382135884,"2013-10-19 00:38:04",232
1382135890,"2013-10-19 00:38:10",231
1382135897,"2013-10-19 00:38:17",228
1382135903,"2013-10-19 00:38:23",229
1382135910,"2013-10-19 00:38:30",226
1382135916,"2013-10-19 00:38:36",226
1382135923,"2013-10-19 00:38:43",231
1382135929,"2013-10-19 00:38:49",229
1382135936,"2013-10-19 00:38:56",227
1382135942,"2013-10-19 00:39:02",224
1382135949,"2013-10-19 00:39:09",227
1382135955,"2013-10-19 00:39:15",224
1382135962,"2013-10-19 00:39:22",231
1382135968,"2013-10-19 00:39:28",234
1382135975,"2013-10-19 00:39:35",230
1382135981,"2013-10-19 00:39:41",237
1382135988,"2013-10-19 00:39:48",227
1382135994,"2013-10-19 00:39:54",227
1382136001,"2013-10-19 00:40:01",230
1382136007,"2013-10-19 00:40:07",220
1382136014,"2013-10-19 00:40:14",228
1382136020,"2013-10-19 00:40:20",228
1382136027,"2013-10-19 00:40:27",227
1382136033,"2013-10-19 00:40:33",230
1382136040,"2013-10-19 00:40:40",226
1382136046,"2013-10-19 00:40:46",225
1382136053,"2013-10-19 00:40:53",228
1382136059,"2013-10-19 00:40:59",226
1382136066,"2013-10-19 00:41:06",226
1382136072,"2013-10-19 00:41:12",219
1382136078,"2013-10-19 00:41:18",229
1382136085,"2013-10-19 00:41:25",234
1382136091,"2013-10-19 00:41:31",233
1382136098,"2013-10-19 00:41:38",230
1382136104,"2013-10-19 00:41:44",231
1382136111,"2013-10-19 00:41:51",232
1382136117,"2013-10-19 00:41:57",229
1382136124,"2013-10-19 00:42:04",232
1382136131,"2013-10-19 00:42:11",232
1382136137,"2013-10-19 00:42:17",230
1382136144,"2013-10-19 00:42:24",229
1382136150,"2013-10-19 00:42:30",227
1382136156,"2013-10-19 00:42:36",228
1382136163,"2013-10-19 00:42:43",225
1382136169,"2013-10-19 00:42:49",228
1382136176,"2013-10-19 00:42:56",230
1382136182,"2013-10-19 00:43:02",233
1382136189,"2013-10-19 00:43:09",289
1382136196,"2013-10-19 00:43:16",278
1382136202,"2013-10-19 00:43:22",276
1382136208,"2013-10-19 00:43:28",280
1382136215,"2013-10-19 00:43:35",279
1382136221,"2013-10-19 00:43:41",281
1382136228,"2013-10-19 00:43:48",281
1382136234,"2013-10-19 00:43:54",278
1382136241,"2013-10-19 00:44:01",278
1382136247,"2013-10-19 00:44:07",277
1382136254,"2013-10-19 00:44:14",278
1382136260,"2013-10-19 00:44:20",278
1382136267,"2013-10-19 00:44:27",301
1382136273,"2013-10-19 00:44:33",306
1382136280,"2013-10-19 00:44:40",293
1382136286,"2013-10-19 00:44:46",290
1382136296,"2013-10-19 00:44:56",294
1382136299,"2013-10-19 00:44:59",284
1382136306,"2013-10-19 00:45:06",285
1382136312,"2013-10-19 00:45:12",286
1382136319,"2013-10-19 00:45:19",286
1382136325,"2013-10-19 00:45:25",298
1382136332,"2013-10-19 00:45:32",300
1382136338,"2013-10-19 00:45:38",287
1382136345,"2013-10-19 00:45:45",290
1382136351,"2013-10-19 00:45:51",299
1382136358,"2013-10-19 00:45:58",290
1382136364,"2013-10-19 00:46:04",290
1382136371,"2013-10-19 00:46:11",294
1382136377,"2013-10-19 00:46:17",290
1382136384,"2013-10-19 00:46:24",290
1382136390,"2013-10-19 00:46:30",288
1382136397,"2013-10-19 00:46:37",288
1382136403,"2013-10-19 00:46:43",284
1382136410,"2013-10-19 00:46:50",284
1382136416,"2013-10-19 00:46:56",282
1382136423,"2013-10-19 00:47:03",283
1382136436,"2013-10-19 00:47:16",349
1382136442,"2013-10-19 00:47:22",362
1382136449,"2013-10-19 00:47:29",358
1382136455,"2013-10-19 00:47:35",351
1382136462,"2013-10-19 00:47:42",370
1382136468,"2013-10-19 00:47:48",358
1382136475,"2013-10-19 00:47:55",355
1382136481,"2013-10-19 00:48:01",358
1382136488,"2013-10-19 00:48:08",386
1382136495,"2013-10-19 00:48:15",342
1382136501,"2013-10-19 00:48:21",349
1382136507,"2013-10-19 00:48:27",355
1382136514,"2013-10-19 00:48:34",346
1382136520,"2013-10-19 00:48:40",346
1382136527,"2013-10-19 00:48:47",347
1382136533,"2013-10-19 00:48:53",346
1382136540,"2013-10-19 00:49:00",338
1382136547,"2013-10-19 00:49:07",347
1382136553,"2013-10-19 00:49:13",340
1382136559,"2013-10-19 00:49:19",384
1382136566,"2013-10-19 00:49:26",344
1382136572,"2013-10-19 00:49:32",344
1382136579,"2013-10-19 00:49:39",393
1382136585,"2013-10-19 00:49:45",341
1382136592,"2013-10-19 00:49:52",346
1382136605,"2013-10-19 00:50:05",350
1382136611,"2013-10-19 00:50:11",344
1382136618,"2013-10-19 00:50:18",339
1382136624,"2013-10-19 00:50:24",344
1382136631,"2013-10-19 00:50:31",340
1382136637,"2013-10-19 00:50:37",343
1382136644,"2013-10-19 00:50:44",349
1382136650,"2013-10-19 00:50:50",390
1382136657,"2013-10-19 00:50:57",347
1382136663,"2013-10-19 00:51:03",340
1382136670,"2013-10-19 00:51:10",378
1382136676,"2013-10-19 00:51:16",348
1382136683,"2013-10-19 00:51:23",353
1382136689,"2013-10-19 00:51:29",381
1382136696,"2013-10-19 00:51:36",346
1382136702,"2013-10-19 00:51:42",347
1382136709,"2013-10-19 00:51:49",334
1382136715,"2013-10-19 00:51:55",342
1382136722,"2013-10-19 00:52:02",342
1382136728,"2013-10-19 00:52:08",344
1382136735,"2013-10-19 00:52:15",343
1382136741,"2013-10-19 00:52:21",347
1382136748,"2013-10-19 00:52:28",340
1382136754,"2013-10-19 00:52:34",343
1382136761,"2013-10-19 00:52:41",403
1382136767,"2013-10-19 00:52:47",348
1382136774,"2013-10-19 00:52:54",342
1382136780,"2013-10-19 00:53:00",386
1382136787,"2013-10-19 00:53:07",353
1382136794,"2013-10-19 00:53:14",339
1382136800,"2013-10-19 00:53:20",389
1382136806,"2013-10-19 00:53:26",340
1382136813,"2013-10-19 00:53:33",341
1382136819,"2013-10-19 00:53:39",342
1382136826,"2013-10-19 00:53:46",337
1382136832,"2013-10-19 00:53:52",342
1382136839,"2013-10-19 00:53:59",343
1382136845,"2013-10-19 00:54:05",346
1382136852,"2013-10-19 00:54:12",340
1382136858,"2013-10-19 00:54:18",348
1382136865,"2013-10-19 00:54:25",338
1382136871,"2013-10-19 00:54:31",380
1382136878,"2013-10-19 00:54:38",344
1382136884,"2013-10-19 00:54:44",344
1382136891,"2013-10-19 00:54:51",384
1382136897,"2013-10-19 00:54:57",356
1382136904,"2013-10-19 00:55:04",342
1382136910,"2013-10-19 00:55:10",357
1382136917,"2013-10-19 00:55:17",338
1382136923,"2013-10-19 00:55:23",345
1382136930,"2013-10-19 00:55:30",344
1382136936,"2013-10-19 00:55:36",344
1382136943,"2013-10-19 00:55:43",339
1382136949,"2013-10-19 00:55:49",337
1382136956,"2013-10-19 00:55:56",340
1382136962,"2013-10-19 00:56:02",380
1382136969,"2013-10-19 00:56:09",343
1382136975,"2013-10-19 00:56:15",340
1382136982,"2013-10-19 00:56:22",390
1382136988,"2013-10-19 00:56:28",344
1382136995,"2013-10-19 00:56:35",334
1382137001,"2013-10-19 00:56:41",386
1382137008,"2013-10-19 00:56:48",336
1382137014,"2013-10-19 00:56:54",335
1382137021,"2013-10-19 00:57:01",329
1382137027,"2013-10-19 00:57:07",340
1382137034,"2013-10-19 00:57:14",344
1382137040,"2013-10-19 00:57:20",349
1382137047,"2013-10-19 00:57:27",343
1382137053,"2013-10-19 00:57:33",340
1382137060,"2013-10-19 00:57:40",347
1382137066,"2013-10-19 00:57:46",338
1382137073,"2013-10-19 00:57:53",398
1382137079,"2013-10-19 00:57:59",341
1382137086,"2013-10-19 00:58:06",294
1382137092,"2013-10-19 00:58:12",293
1382137099,"2013-10-19 00:58:19",281
1382137105,"2013-10-19 00:58:25",287
1382137112,"2013-10-19 00:58:32",284
1382137118,"2013-10-19 00:58:38",342
1382137125,"2013-10-19 00:58:45",351
1382137132,"2013-10-19 00:58:52",353
1382137138,"2013-10-19 00:58:58",347
1382137145,"2013-10-19 00:59:05",352
1382137151,"2013-10-19 00:59:11",364
1382137158,"2013-10-19 00:59:18",352
1382137164,"2013-10-19 00:59:24",355
1382137171,"2013-10-19 00:59:31",349
1382137177,"2013-10-19 00:59:37",347
1382137184,"2013-10-19 00:59:44",355
1382137190,"2013-10-19 00:59:50",350
1382137197,"2013-10-19 00:59:57",353
1382137203,"2013-10-19 01:00:03",356
1382137210,"2013-10-19 01:00:10",354
1382137216,"2013-10-19 01:00:16",355
1382137223,"2013-10-19 01:00:23",344
1382137229,"2013-10-19 01:00:29",2336
1382137236,"2013-10-19 01:00:36",2363
1382137242,"2013-10-19 01:00:42",2330
1382137249,"2013-10-19 01:00:49",2304
1382137255,"2013-10-19 01:00:55",2337
1382137262,"2013-10-19 01:01:02",2324
1382137268,"2013-10-19 01:01:08",2323
1382137275,"2013-10-19 01:01:15",2341
1382137281,"2013-10-19 01:01:21",2305
1382137288,"2013-10-19 01:01:28",2297
1382137294,"2013-10-19 01:01:34",2294
1382137301,"2013-10-19 01:01:41",2315
1382137307,"2013-10-19 01:01:47",2301
1382137314,"2013-10-19 01:01:54",2302
1382137320,"2013-10-19 01:02:00",2314
1382137327,"2013-10-19 01:02:07",2290
1382137333,"2013-10-19 01:02:13",2285
1382137340,"2013-10-19 01:02:20",2285
1382137346,"2013-10-19 01:02:26",2361
1382137353,"2013-10-19 01:02:33",2317
1382137359,"2013-10-19 01:02:39",2299
1382137366,"2013-10-19 01:02:46",2329
1382137372,"2013-10-19 01:02:52",2282
1382137379,"2013-10-19 01:02:59",2305
1382137385,"2013-10-19 01:03:05",2327
1382137392,"2013-10-19 01:03:12",2303
1382137398,"2013-10-19 01:03:18",2312
1382137405,"2013-10-19 01:03:25",2317
1382137411,"2013-10-19 01:03:31",2281
1382137418,"2013-10-19 01:03:38",2282
1382137424,"2013-10-19 01:03:44",2242
1382137431,"2013-10-19 01:03:51",2258
1382137437,"2013-10-19 01:03:57",2238
1382137443,"2013-10-19 01:04:03",2245
1382137450,"2013-10-19 01:04:10",2244
1382137457,"2013-10-19 01:04:17",2279
1382137463,"2013-10-19 01:04:23",2244
1382137470,"2013-10-19 01:04:30",2271
1382137476,"2013-10-19 01:04:36",2290
1382137483,"2013-10-19 01:04:43",2272
1382137489,"2013-10-19 01:04:49",2261
1382137496,"2013-10-19 01:04:56",2267
1382137502,"2013-10-19 01:05:02",2252
1382137509,"2013-10-19 01:05:09",2264
1382137515,"2013-10-19 01:05:15",2239
1382137522,"2013-10-19 01:05:22",2263
1382137528,"2013-10-19 01:05:28",2242
1382137535,"2013-10-19 01:05:35",2265
1382137541,"2013-10-19 01:05:41",2238
1382137548,"2013-10-19 01:05:48",2308
1382137554,"2013-10-19 01:05:54",2245
1382137561,"2013-10-19 01:06:01",2271
1382137567,"2013-10-19 01:06:07",2283
1382137574,"2013-10-19 01:06:14",2268
1382137580,"2013-10-19 01:06:20",2273
1382137587,"2013-10-19 01:06:27",2290
1382137593,"2013-10-19 01:06:33",2251
1382137600,"2013-10-19 01:06:40",2276
1382137606,"2013-10-19 01:06:46",2261
1382137613,"2013-10-19 01:06:53",2253
1382137619,"2013-10-19 01:06:59",2267
1382137626,"2013-10-19 01:07:06",2299
1382137632,"2013-10-19 01:07:12",2252
1382137639,"2013-10-19 01:07:19",2279
1382137645,"2013-10-19 01:07:25",2276
1382137652,"2013-10-19 01:07:32",2270
1382137658,"2013-10-19 01:07:38",2311
1382137665,"2013-10-19 01:07:45",2258
1382137671,"2013-10-19 01:07:51",2245
1382137678,"2013-10-19 01:07:58",2283
1382137684,"2013-10-19 01:08:04",2272
1382137691,"2013-10-19 01:08:11",2247
1382137697,"2013-10-19 01:08:17",2247
1382137704,"2013-10-19 01:08:24",2246
1382137710,"2013-10-19 01:08:30",2244
1382137717,"2013-10-19 01:08:37",2259
1382137723,"2013-10-19 01:08:43",2238
1382137730,"2013-10-19 01:08:50",2241
1382137736,"2013-10-19 01:08:56",2267
1382137743,"2013-10-19 01:09:03",2249
1382137750,"2013-10-19 01:09:10",2293
1382137756,"2013-10-19 01:09:16",2270
1382137762,"2013-10-19 01:09:22",2268
1382137769,"2013-10-19 01:09:29",2273
1382137775,"2013-10-19 01:09:35",2263
1382137782,"2013-10-19 01:09:42",2246
1382137788,"2013-10-19 01:09:48",2288
1382137795,"2013-10-19 01:09:55",2261
1382137801,"2013-10-19 01:10:01",2260
1382137808,"2013-10-19 01:10:08",2263
1382137814,"2013-10-19 01:10:14",2239
1382137821,"2013-10-19 01:10:21",2263